Year,Month,Day,Hour,Minute,Value (Times are PST for windspeed in km/hr)
2017,09,29,00,00,10.00
2017,09,29,00,01,9.30
2017,09,29,00,02,10.80
2017,09,29,00,03,9.40
2017,09,29,00,04,8.50
2017,09,29,00,05,11.40
2017,09,29,00,06,8.80
2017,09,29,00,07,5.30
2017,09,29,00,08,11.50
2017,09,29,00,09,6.40
2017,09,29,00,10,10.20
2017,09,29,00,11,10.10
2017,09,29,00,12,9.40
2017,09,29,00,13,6.80
2017,09,29,00,14,9.60
2017,09,29,00,15,9.10
2017,09,29,00,16,7.40
2017,09,29,00,17,9.30
2017,09,29,00,18,8.30
2017,09,29,00,19,7.80
2017,09,29,00,20,6.50
2017,09,29,00,21,8.80
2017,09,29,00,22,9.20
2017,09,29,00,23,14.70
2017,09,29,00,24,10.30
2017,09,29,00,25,8.70
2017,09,29,00,26,10.80
2017,09,29,00,27,10.40
2017,09,29,00,28,11.60
2017,09,29,00,29,9.50
2017,09,29,00,30,8.10
2017,09,29,00,31,11.90
2017,09,29,00,32,11.80
2017,09,29,00,33,9.70
2017,09,29,00,34,7.00
2017,09,29,00,35,7.70
2017,09,29,00,36,10.00
2017,09,29,00,37,11.70
2017,09,29,00,38,13.60
2017,09,29,00,39,7.40
2017,09,29,00,40,9.10
2017,09,29,00,41,9.10
2017,09,29,00,42,7.90
2017,09,29,00,43,13.60
2017,09,29,00,44,7.10
2017,09,29,00,45,7.70
2017,09,29,00,46,11.80
2017,09,29,00,47,8.20
2017,09,29,00,48,7.60
2017,09,29,00,49,9.50
2017,09,29,00,50,13.30
2017,09,29,00,51,9.30
2017,09,29,00,52,11.70
2017,09,29,00,53,12.10
2017,09,29,00,54,11.80
2017,09,29,00,55,10.60
2017,09,29,00,56,12.50
2017,09,29,00,57,9.80
2017,09,29,00,58,10.50
2017,09,29,00,59,14.90
2017,09,29,01,00,8.10
2017,09,29,01,01,8.10
2017,09,29,01,02,11.10
2017,09,29,01,03,11.60
2017,09,29,01,04,7.20
2017,09,29,01,05,11.60
2017,09,29,01,06,10.70
2017,09,29,01,07,7.30
2017,09,29,01,08,9.70
2017,09,29,01,09,9.70
2017,09,29,01,10,11.60
2017,09,29,01,11,6.70
2017,09,29,01,12,11.00
2017,09,29,01,13,8.50
2017,09,29,01,14,6.80
2017,09,29,01,15,10.20
2017,09,29,01,16,8.30
2017,09,29,01,17,10.00
2017,09,29,01,18,8.00
2017,09,29,01,19,11.60
2017,09,29,01,20,9.50
2017,09,29,01,21,8.50
2017,09,29,01,22,10.70
2017,09,29,01,23,13.70
2017,09,29,01,24,10.40
2017,09,29,01,25,9.30
2017,09,29,01,26,13.20
2017,09,29,01,27,10.50
2017,09,29,01,28,11.30
2017,09,29,01,29,10.60
2017,09,29,01,30,8.10
2017,09,29,01,31,7.90
2017,09,29,01,32,7.30
2017,09,29,01,33,9.70
2017,09,29,01,34,11.90
2017,09,29,01,35,7.90
2017,09,29,01,36,12.00
2017,09,29,01,37,10.00
2017,09,29,01,38,8.90
2017,09,29,01,39,8.60
2017,09,29,01,40,9.70
2017,09,29,01,41,7.50
2017,09,29,01,42,11.80
2017,09,29,01,43,7.10
2017,09,29,01,44,10.20
2017,09,29,01,45,6.80
2017,09,29,01,46,8.10
2017,09,29,01,47,8.90
2017,09,29,01,48,11.90
2017,09,29,01,49,8.10
2017,09,29,01,50,6.20
2017,09,29,01,51,7.80
2017,09,29,01,52,11.80
2017,09,29,01,53,8.00
2017,09,29,01,54,7.10
2017,09,29,01,55,10.20
2017,09,29,01,56,7.40
2017,09,29,01,57,9.60
2017,09,29,01,58,10.70
2017,09,29,01,59,9.10
2017,09,29,02,00,8.10
2017,09,29,02,01,10.30
2017,09,29,02,02,10.70
2017,09,29,02,03,12.80
2017,09,29,02,04,8.20
2017,09,29,02,05,11.20
2017,09,29,02,06,9.30
2017,09,29,02,07,7.70
2017,09,29,02,08,9.50
2017,09,29,02,09,8.20
2017,09,29,02,10,9.30
2017,09,29,02,11,8.60
2017,09,29,02,12,11.30
2017,09,29,02,13,8.90
2017,09,29,02,14,7.00
2017,09,29,02,15,6.40
2017,09,29,02,16,6.60
2017,09,29,02,17,9.10
2017,09,29,02,18,9.10
2017,09,29,02,19,7.90
2017,09,29,02,20,6.40
2017,09,29,02,21,8.20
2017,09,29,02,22,8.10
2017,09,29,02,23,10.50
2017,09,29,02,24,12.50
2017,09,29,02,25,15.40
2017,09,29,02,26,8.40
2017,09,29,02,27,11.40
2017,09,29,02,28,8.50
2017,09,29,02,29,9.90
2017,09,29,02,30,10.70
2017,09,29,02,31,9.60
2017,09,29,02,32,11.60
2017,09,29,02,33,7.90
2017,09,29,02,34,10.30
2017,09,29,02,35,9.30
2017,09,29,02,36,9.60
2017,09,29,02,37,9.60
2017,09,29,02,38,10.00
2017,09,29,02,39,12.20
2017,09,29,02,40,12.60
2017,09,29,02,41,7.20
2017,09,29,02,42,9.80
2017,09,29,02,43,10.70
2017,09,29,02,44,7.40
2017,09,29,02,45,8.00
2017,09,29,02,46,9.20
2017,09,29,02,47,10.10
2017,09,29,02,48,7.50
2017,09,29,02,49,9.30
2017,09,29,02,50,5.10
2017,09,29,02,51,8.90
2017,09,29,02,52,5.40
2017,09,29,02,53,6.80
2017,09,29,02,54,7.60
2017,09,29,02,55,6.70
2017,09,29,02,56,6.90
2017,09,29,02,57,7.10
2017,09,29,02,58,8.80
2017,09,29,02,59,7.50
2017,09,29,03,00,6.80
2017,09,29,03,01,7.70
2017,09,29,03,02,9.70
2017,09,29,03,03,11.30
2017,09,29,03,04,10.10
2017,09,29,03,05,7.70
2017,09,29,03,06,6.40
2017,09,29,03,07,8.30
2017,09,29,03,08,8.30
2017,09,29,03,09,9.60
2017,09,29,03,10,7.60
2017,09,29,03,11,10.00
2017,09,29,03,12,10.10
2017,09,29,03,13,9.10
2017,09,29,03,14,9.90
2017,09,29,03,15,11.20
2017,09,29,03,16,9.10
2017,09,29,03,17,8.40
2017,09,29,03,18,9.30
2017,09,29,03,19,7.30
2017,09,29,03,20,10.90
2017,09,29,03,21,11.30
2017,09,29,03,22,10.70
2017,09,29,03,23,6.80
2017,09,29,03,24,5.60
2017,09,29,03,25,5.30
2017,09,29,03,26,6.70
2017,09,29,03,27,4.30
2017,09,29,03,28,2.70
2017,09,29,03,29,5.60
2017,09,29,03,30,8.10
2017,09,29,03,31,4.00
2017,09,29,03,32,3.10
2017,09,29,03,33,4.30
2017,09,29,03,34,4.70
2017,09,29,03,35,5.70
2017,09,29,03,36,7.70
2017,09,29,03,37,3.10
2017,09,29,03,38,3.70
2017,09,29,03,39,4.20
2017,09,29,03,40,2.10
2017,09,29,03,41,3.20
2017,09,29,03,42,3.90
2017,09,29,03,43,4.20
2017,09,29,03,44,3.40
2017,09,29,03,45,3.40
2017,09,29,03,46,4.60
2017,09,29,03,47,2.10
2017,09,29,03,48,1.10
2017,09,29,03,49,0.30
2017,09,29,03,50,2.60
2017,09,29,03,51,0.40
2017,09,29,03,52,0.00
2017,09,29,03,53,0.00
2017,09,29,03,54,0.00
2017,09,29,03,55,0.00
2017,09,29,03,56,0.00
2017,09,29,03,57,0.00
2017,09,29,03,58,0.00
2017,09,29,03,59,0.00
2017,09,29,04,00,0.00
2017,09,29,04,01,0.00
2017,09,29,04,02,0.00
2017,09,29,04,03,0.00
2017,09,29,04,04,0.00
2017,09,29,04,05,0.00
2017,09,29,04,06,0.00
2017,09,29,04,07,0.00
2017,09,29,04,08,0.00
2017,09,29,04,09,0.00
2017,09,29,04,10,0.00
2017,09,29,04,11,0.00
2017,09,29,04,12,0.00
2017,09,29,04,13,0.00
2017,09,29,04,14,0.00
2017,09,29,04,15,0.00
2017,09,29,04,16,0.00
2017,09,29,04,17,0.00
2017,09,29,04,18,0.00
2017,09,29,04,19,0.00
2017,09,29,04,20,0.70
2017,09,29,04,21,0.80
2017,09,29,04,22,4.90
2017,09,29,04,23,1.00
2017,09,29,04,24,5.20
2017,09,29,04,25,2.90
2017,09,29,04,26,5.90
2017,09,29,04,27,5.70
2017,09,29,04,28,9.20
2017,09,29,04,29,8.30
2017,09,29,04,30,8.30
2017,09,29,04,31,5.80
2017,09,29,04,32,5.00
2017,09,29,04,33,6.20
2017,09,29,04,34,4.80
2017,09,29,04,35,5.20
2017,09,29,04,36,9.90
2017,09,29,04,37,11.40
2017,09,29,04,38,9.40
2017,09,29,04,39,8.30
2017,09,29,04,40,8.70
2017,09,29,04,41,10.90
2017,09,29,04,42,8.50
2017,09,29,04,43,10.00
2017,09,29,04,44,6.40
2017,09,29,04,45,12.60
2017,09,29,04,46,11.10
2017,09,29,04,47,8.10
2017,09,29,04,48,9.00
2017,09,29,04,49,8.10
2017,09,29,04,50,6.00
2017,09,29,04,51,8.90
2017,09,29,04,52,6.40
2017,09,29,04,53,7.00
2017,09,29,04,54,9.20
2017,09,29,04,55,7.20
2017,09,29,04,56,10.90
2017,09,29,04,57,6.40
2017,09,29,04,58,7.80
2017,09,29,04,59,5.30
2017,09,29,05,00,9.40
2017,09,29,05,01,6.30
2017,09,29,05,02,9.60
2017,09,29,05,03,11.90
2017,09,29,05,04,7.10
2017,09,29,05,05,4.80
2017,09,29,05,06,7.20
2017,09,29,05,07,9.30
2017,09,29,05,08,6.60
2017,09,29,05,09,8.10
2017,09,29,05,10,12.70
2017,09,29,05,11,10.60
2017,09,29,05,12,8.80
2017,09,29,05,13,10.30
2017,09,29,05,14,13.50
2017,09,29,05,15,12.00
2017,09,29,05,16,8.70
2017,09,29,05,17,6.80
2017,09,29,05,18,10.90
2017,09,29,05,19,9.40
2017,09,29,05,20,7.50
2017,09,29,05,21,5.60
2017,09,29,05,22,9.30
2017,09,29,05,23,5.50
2017,09,29,05,24,6.40
2017,09,29,05,25,7.10
2017,09,29,05,26,7.70
2017,09,29,05,27,8.70
2017,09,29,05,28,3.30
2017,09,29,05,29,3.10
2017,09,29,05,30,8.10
2017,09,29,05,31,7.40
2017,09,29,05,32,5.10
2017,09,29,05,33,5.80
2017,09,29,05,34,8.50
2017,09,29,05,35,12.50
2017,09,29,05,36,8.90
2017,09,29,05,37,4.60
2017,09,29,05,38,4.70
2017,09,29,05,39,2.50
2017,09,29,05,40,2.90
2017,09,29,05,41,3.10
2017,09,29,05,42,2.40
2017,09,29,05,43,4.10
2017,09,29,05,44,3.30
2017,09,29,05,45,0.20
2017,09,29,05,46,4.60
2017,09,29,05,47,5.60
2017,09,29,05,48,2.70
2017,09,29,05,49,1.30
2017,09,29,05,50,4.30
2017,09,29,05,51,4.30
2017,09,29,05,52,2.00
2017,09,29,05,53,1.50
2017,09,29,05,54,2.50
2017,09,29,05,55,2.30
2017,09,29,05,56,5.00
2017,09,29,05,57,3.30
2017,09,29,05,58,1.30
2017,09,29,05,59,1.30
2017,09,29,06,00,1.40
2017,09,29,06,01,0.40
2017,09,29,06,02,0.00
2017,09,29,06,03,1.50
2017,09,29,06,04,0.70
2017,09,29,06,05,2.10
2017,09,29,06,06,0.00
2017,09,29,06,07,0.50
2017,09,29,06,08,0.10
2017,09,29,06,09,0.20
2017,09,29,06,10,0.20
2017,09,29,06,11,0.80
2017,09,29,06,12,0.60
2017,09,29,06,13,0.00
2017,09,29,06,14,0.00
2017,09,29,06,15,0.00
2017,09,29,06,16,0.00
2017,09,29,06,17,0.00
2017,09,29,06,18,1.00
2017,09,29,06,19,1.50
2017,09,29,06,20,1.80
2017,09,29,06,21,0.20
2017,09,29,06,22,0.00
2017,09,29,06,23,0.00
2017,09,29,06,24,1.10
2017,09,29,06,25,0.20
2017,09,29,06,26,0.50
2017,09,29,06,27,0.00
2017,09,29,06,28,0.80
2017,09,29,06,29,2.20
2017,09,29,06,30,2.00
2017,09,29,06,31,0.40
2017,09,29,06,32,0.00
2017,09,29,06,33,0.00
2017,09,29,06,34,0.00
2017,09,29,06,35,0.00
2017,09,29,06,36,0.10
2017,09,29,06,37,0.60
2017,09,29,06,38,0.00
2017,09,29,06,39,0.00
2017,09,29,06,40,0.00
2017,09,29,06,41,0.10
2017,09,29,06,42,0.90
2017,09,29,06,43,0.00
2017,09,29,06,44,0.00
2017,09,29,06,45,0.00
2017,09,29,06,46,0.00
2017,09,29,06,47,0.00
2017,09,29,06,48,0.00
2017,09,29,06,49,0.10
2017,09,29,06,50,0.10
2017,09,29,06,51,0.70
2017,09,29,06,52,0.10
2017,09,29,06,53,0.00
2017,09,29,06,54,1.00
2017,09,29,06,55,1.20
2017,09,29,06,56,0.00
2017,09,29,06,57,0.80
2017,09,29,06,58,2.90
2017,09,29,06,59,1.90
2017,09,29,07,00,0.10
2017,09,29,07,01,1.90
2017,09,29,07,02,0.80
2017,09,29,07,03,0.20
2017,09,29,07,04,2.40
2017,09,29,07,05,1.20
2017,09,29,07,06,1.70
2017,09,29,07,07,1.40
2017,09,29,07,08,0.00
2017,09,29,07,09,0.00
2017,09,29,07,10,0.00
2017,09,29,07,11,0.00
2017,09,29,07,12,0.00
2017,09,29,07,13,0.00
2017,09,29,07,14,0.00
2017,09,29,07,15,0.00
2017,09,29,07,16,0.00
2017,09,29,07,17,0.00
2017,09,29,07,18,2.20
2017,09,29,07,19,2.30
2017,09,29,07,20,2.50
2017,09,29,07,21,1.40
2017,09,29,07,22,1.10
2017,09,29,07,23,0.20
2017,09,29,07,24,0.70
2017,09,29,07,25,1.60
2017,09,29,07,26,1.70
2017,09,29,07,27,0.00
2017,09,29,07,28,0.00
2017,09,29,07,29,0.00
2017,09,29,07,30,0.00
2017,09,29,07,31,0.00
2017,09,29,07,32,0.00
2017,09,29,07,33,0.00
2017,09,29,07,34,0.00
2017,09,29,07,35,0.00
2017,09,29,07,36,0.00
2017,09,29,07,37,0.00
2017,09,29,07,38,0.00
2017,09,29,07,39,0.00
2017,09,29,07,40,0.00
2017,09,29,07,41,0.00
2017,09,29,07,42,0.00
2017,09,29,07,43,0.00
2017,09,29,07,44,0.00
2017,09,29,07,45,0.00
2017,09,29,07,46,0.00
2017,09,29,07,47,0.00
2017,09,29,07,48,0.00
2017,09,29,07,49,0.00
2017,09,29,07,50,0.00
2017,09,29,07,51,0.00
2017,09,29,07,52,0.00
2017,09,29,07,53,0.00
2017,09,29,07,54,0.00
2017,09,29,07,55,0.00
2017,09,29,07,56,0.00
2017,09,29,07,57,0.00
2017,09,29,07,58,0.00
2017,09,29,07,59,0.00
2017,09,29,08,00,0.00
2017,09,29,08,01,0.00
2017,09,29,08,02,0.00
2017,09,29,08,03,0.00
2017,09,29,08,04,0.00
2017,09,29,08,05,0.00
2017,09,29,08,06,0.00
2017,09,29,08,07,0.00
2017,09,29,08,08,0.00
2017,09,29,08,09,0.00
2017,09,29,08,10,0.00
2017,09,29,08,11,0.00
2017,09,29,08,12,0.00
2017,09,29,08,13,0.00
2017,09,29,08,14,0.00
2017,09,29,08,15,0.00
2017,09,29,08,16,0.00
2017,09,29,08,17,0.00
2017,09,29,08,18,0.00
2017,09,29,08,19,0.00
2017,09,29,08,20,0.00
2017,09,29,08,21,0.00
2017,09,29,08,22,0.00
2017,09,29,08,23,0.00
2017,09,29,08,24,0.00
2017,09,29,08,25,0.00
2017,09,29,08,26,0.00
2017,09,29,08,27,0.00
2017,09,29,08,28,0.00
2017,09,29,08,29,0.00
2017,09,29,08,30,0.10
2017,09,29,08,31,0.80
2017,09,29,08,32,2.50
2017,09,29,08,33,2.50
2017,09,29,08,34,3.40
2017,09,29,08,35,3.10
2017,09,29,08,36,1.40
2017,09,29,08,37,0.30
2017,09,29,08,38,0.10
2017,09,29,08,39,0.00
2017,09,29,08,40,0.10
2017,09,29,08,41,0.20
2017,09,29,08,42,0.00
2017,09,29,08,43,0.00
2017,09,29,08,44,0.80
2017,09,29,08,45,1.10
2017,09,29,08,46,0.00
2017,09,29,08,47,0.00
2017,09,29,08,48,0.00
2017,09,29,08,49,0.00
2017,09,29,08,50,0.00
2017,09,29,08,51,0.20
2017,09,29,08,52,0.00
2017,09,29,08,53,0.00
2017,09,29,08,54,0.00
2017,09,29,08,55,0.00
2017,09,29,08,56,0.00
2017,09,29,08,57,0.00
2017,09,29,08,58,0.00
2017,09,29,08,59,0.00
2017,09,29,09,00,0.00
2017,09,29,09,01,0.00
2017,09,29,09,02,0.00
2017,09,29,09,03,0.00
2017,09,29,09,04,0.00
2017,09,29,09,05,0.00
2017,09,29,09,06,0.00
2017,09,29,09,07,0.00
2017,09,29,09,08,0.00
2017,09,29,09,09,0.00
2017,09,29,09,10,0.00
2017,09,29,09,11,0.10
2017,09,29,09,12,0.00
2017,09,29,09,13,0.00
2017,09,29,09,14,0.00
2017,09,29,09,15,0.00
2017,09,29,09,16,0.00
2017,09,29,09,17,0.00
2017,09,29,09,18,0.10
2017,09,29,09,19,0.20
2017,09,29,09,20,1.70
2017,09,29,09,21,0.80
2017,09,29,09,22,0.20
2017,09,29,09,23,1.80
2017,09,29,09,24,1.80
2017,09,29,09,25,0.30
2017,09,29,09,26,0.00
2017,09,29,09,27,0.00
2017,09,29,09,28,0.00
2017,09,29,09,29,0.00
2017,09,29,09,30,0.00
2017,09,29,09,31,0.00
2017,09,29,09,32,0.50
2017,09,29,09,33,0.00
2017,09,29,09,34,0.00
2017,09,29,09,35,0.00
2017,09,29,09,36,0.00
2017,09,29,09,37,0.00
2017,09,29,09,38,0.00
2017,09,29,09,39,0.00
2017,09,29,09,40,0.00
2017,09,29,09,41,0.00
2017,09,29,09,42,0.00
2017,09,29,09,43,0.00
2017,09,29,09,44,0.00
2017,09,29,09,45,0.00
2017,09,29,09,46,0.00
2017,09,29,09,47,0.00
2017,09,29,09,48,0.20
2017,09,29,09,49,0.20
2017,09,29,09,50,0.00
2017,09,29,09,51,0.00
2017,09,29,09,52,0.00
2017,09,29,09,53,0.00
2017,09,29,09,54,0.00
2017,09,29,09,55,0.00
2017,09,29,09,56,0.00
2017,09,29,09,57,0.00
2017,09,29,09,58,0.00
2017,09,29,09,59,0.00
2017,09,29,10,00,0.60
2017,09,29,10,01,0.40
2017,09,29,10,02,0.00
2017,09,29,10,03,0.00
2017,09,29,10,04,0.00
2017,09,29,10,05,0.00
2017,09,29,10,06,0.00
2017,09,29,10,07,0.00
2017,09,29,10,08,0.00
2017,09,29,10,09,0.00
2017,09,29,10,10,0.00
2017,09,29,10,11,0.00
2017,09,29,10,12,0.00
2017,09,29,10,13,0.00
2017,09,29,10,14,0.00
2017,09,29,10,15,0.00
2017,09,29,10,16,0.00
2017,09,29,10,17,0.00
2017,09,29,10,18,0.00
2017,09,29,10,19,0.20
2017,09,29,10,20,0.00
2017,09,29,10,21,0.00
2017,09,29,10,22,0.10
2017,09,29,10,23,0.00
2017,09,29,10,24,0.00
2017,09,29,10,25,0.00
2017,09,29,10,26,0.00
2017,09,29,10,27,0.00
2017,09,29,10,28,0.00
2017,09,29,10,29,0.00
2017,09,29,10,30,0.00
2017,09,29,10,31,0.00
2017,09,29,10,32,0.00
2017,09,29,10,33,0.00
2017,09,29,10,34,0.00
2017,09,29,10,35,0.00
2017,09,29,10,36,0.00
2017,09,29,10,37,0.00
2017,09,29,10,38,0.00
2017,09,29,10,39,0.00
2017,09,29,10,40,0.00
2017,09,29,10,41,0.00
2017,09,29,10,42,0.00
2017,09,29,10,43,0.00
2017,09,29,10,44,0.00
2017,09,29,10,45,0.00
2017,09,29,10,46,0.00
2017,09,29,10,47,0.10
2017,09,29,10,48,0.20
2017,09,29,10,49,1.10
2017,09,29,10,50,0.50
2017,09,29,10,51,0.00
2017,09,29,10,52,0.00
2017,09,29,10,53,0.00
2017,09,29,10,54,1.10
2017,09,29,10,55,0.40
2017,09,29,10,56,0.00
2017,09,29,10,57,0.00
2017,09,29,10,58,0.00
2017,09,29,10,59,0.00
2017,09,29,11,00,0.00
2017,09,29,11,01,0.00
2017,09,29,11,02,0.00
2017,09,29,11,03,0.00
2017,09,29,11,04,0.00
2017,09,29,11,05,0.00
2017,09,29,11,06,0.00
2017,09,29,11,07,0.00
2017,09,29,11,08,0.00
2017,09,29,11,09,0.00
2017,09,29,11,10,0.00
2017,09,29,11,11,0.00
2017,09,29,11,12,0.00
2017,09,29,11,13,0.00
2017,09,29,11,14,0.00
2017,09,29,11,15,0.00
2017,09,29,11,16,1.80
2017,09,29,11,17,1.70
2017,09,29,11,18,2.30
2017,09,29,11,19,2.10
2017,09,29,11,20,3.40
2017,09,29,11,21,0.10
2017,09,29,11,22,2.30
2017,09,29,11,23,1.50
2017,09,29,11,24,1.10
2017,09,29,11,25,0.20
2017,09,29,11,26,2.30
2017,09,29,11,27,0.90
2017,09,29,11,28,0.10
2017,09,29,11,29,0.00
2017,09,29,11,30,0.00
2017,09,29,11,31,0.00
2017,09,29,11,32,0.00
2017,09,29,11,33,0.00
2017,09,29,11,34,0.00
2017,09,29,11,35,0.00
2017,09,29,11,36,0.10
2017,09,29,11,37,1.10
2017,09,29,11,38,3.90
2017,09,29,11,39,4.10
2017,09,29,11,40,2.80
2017,09,29,11,41,2.60
2017,09,29,11,42,5.30
2017,09,29,11,43,2.20
2017,09,29,11,44,0.90
2017,09,29,11,45,1.70
2017,09,29,11,46,0.30
2017,09,29,11,47,0.00
2017,09,29,11,48,0.10
2017,09,29,11,49,0.00
2017,09,29,11,50,0.20
2017,09,29,11,51,0.00
2017,09,29,11,52,0.10
2017,09,29,11,53,1.50
2017,09,29,11,54,0.50
2017,09,29,11,55,0.00
2017,09,29,11,56,0.00
2017,09,29,11,57,0.90
2017,09,29,11,58,0.00
2017,09,29,11,59,0.10
2017,09,29,12,00,0.60
2017,09,29,12,01,0.20
2017,09,29,12,02,0.20
2017,09,29,12,03,0.00
2017,09,29,12,04,0.00
2017,09,29,12,05,0.20
2017,09,29,12,06,0.30
2017,09,29,12,07,0.10
2017,09,29,12,08,0.00
2017,09,29,12,09,0.10
2017,09,29,12,10,0.10
2017,09,29,12,11,1.90
2017,09,29,12,12,3.00
2017,09,29,12,13,3.10
2017,09,29,12,14,4.10
2017,09,29,12,15,2.00
2017,09,29,12,16,2.00
2017,09,29,12,17,2.10
2017,09,29,12,18,4.10
2017,09,29,12,19,0.40
2017,09,29,12,20,2.40
2017,09,29,12,21,2.90
2017,09,29,12,22,1.30
2017,09,29,12,23,0.00
2017,09,29,12,24,2.10
2017,09,29,12,25,0.00
2017,09,29,12,26,0.00
2017,09,29,12,27,2.50
2017,09,29,12,28,4.90
2017,09,29,12,29,2.30
2017,09,29,12,30,2.20
2017,09,29,12,31,0.70
2017,09,29,12,32,1.80
2017,09,29,12,33,2.50
2017,09,29,12,34,1.60
2017,09,29,12,35,0.20
2017,09,29,12,36,2.40
2017,09,29,12,37,0.10
2017,09,29,12,38,0.00
2017,09,29,12,39,0.00
2017,09,29,12,40,0.10
2017,09,29,12,41,0.20
2017,09,29,12,42,1.50
2017,09,29,12,43,3.60
2017,09,29,12,44,4.20
2017,09,29,12,45,2.20
2017,09,29,12,46,0.10
2017,09,29,12,47,0.20
2017,09,29,12,48,0.10
2017,09,29,12,49,0.40
2017,09,29,12,50,0.60
2017,09,29,12,51,1.10
2017,09,29,12,52,2.20
2017,09,29,12,53,1.50
2017,09,29,12,54,1.80
2017,09,29,12,55,2.90
2017,09,29,12,56,0.20
2017,09,29,12,57,0.00
2017,09,29,12,58,0.00
2017,09,29,12,59,0.00
2017,09,29,13,00,0.60
2017,09,29,13,01,0.50
2017,09,29,13,02,0.20
2017,09,29,13,03,0.00
2017,09,29,13,04,0.20
2017,09,29,13,05,0.50
2017,09,29,13,06,0.30
2017,09,29,13,07,3.40
2017,09,29,13,08,0.40
2017,09,29,13,09,0.00
2017,09,29,13,10,0.00
2017,09,29,13,11,1.50
2017,09,29,13,12,1.50
2017,09,29,13,13,1.70
2017,09,29,13,14,2.80
2017,09,29,13,15,2.50
2017,09,29,13,16,1.20
2017,09,29,13,17,0.50
2017,09,29,13,18,6.60
2017,09,29,13,19,5.20
2017,09,29,13,20,3.60
2017,09,29,13,21,4.50
2017,09,29,13,22,4.70
2017,09,29,13,23,2.20
2017,09,29,13,24,2.70
2017,09,29,13,25,2.60
2017,09,29,13,26,3.50
2017,09,29,13,27,1.50
2017,09,29,13,28,0.60
2017,09,29,13,29,1.80
2017,09,29,13,30,1.20
2017,09,29,13,31,0.60
2017,09,29,13,32,0.10
2017,09,29,13,33,0.20
2017,09,29,13,34,0.50
2017,09,29,13,35,0.30
2017,09,29,13,36,0.00
2017,09,29,13,37,0.00
2017,09,29,13,38,2.40
2017,09,29,13,39,4.50
2017,09,29,13,40,1.50
2017,09,29,13,41,1.30
2017,09,29,13,42,1.50
2017,09,29,13,43,1.30
2017,09,29,13,44,2.10
2017,09,29,13,45,4.00
2017,09,29,13,46,2.90
2017,09,29,13,47,1.10
2017,09,29,13,48,2.30
2017,09,29,13,49,2.00
2017,09,29,13,50,0.60
2017,09,29,13,51,2.20
2017,09,29,13,52,6.60
2017,09,29,13,53,4.70
2017,09,29,13,54,8.30
2017,09,29,13,55,8.40
2017,09,29,13,56,5.70
2017,09,29,13,57,6.80
2017,09,29,13,58,9.30
2017,09,29,13,59,9.00
2017,09,29,14,00,6.30
2017,09,29,14,01,7.20
2017,09,29,14,02,14.70
2017,09,29,14,03,13.90
2017,09,29,14,04,10.00
2017,09,29,14,05,10.80
2017,09,29,14,06,10.90
2017,09,29,14,07,13.50
2017,09,29,14,08,13.20
2017,09,29,14,09,11.10
2017,09,29,14,10,13.90
2017,09,29,14,11,14.90
2017,09,29,14,12,12.90
2017,09,29,14,13,17.60
2017,09,29,14,14,11.20
2017,09,29,14,15,12.40
2017,09,29,14,16,18.90
2017,09,29,14,17,12.30
2017,09,29,14,18,14.00
2017,09,29,14,19,15.00
2017,09,29,14,20,19.80
2017,09,29,14,21,23.00
2017,09,29,14,22,21.90
2017,09,29,14,23,15.00
2017,09,29,14,24,14.90
2017,09,29,14,25,20.00
2017,09,29,14,26,20.20
2017,09,29,14,27,13.60
2017,09,29,14,28,16.70
2017,09,29,14,29,15.90
2017,09,29,14,30,17.50
2017,09,29,14,31,11.00
2017,09,29,14,32,10.50
2017,09,29,14,33,16.80
2017,09,29,14,34,9.40
2017,09,29,14,35,13.30
2017,09,29,14,36,14.20
2017,09,29,14,37,16.30
2017,09,29,14,38,13.80
2017,09,29,14,39,14.10
2017,09,29,14,40,15.90
2017,09,29,14,41,22.50
2017,09,29,14,42,17.50
2017,09,29,14,43,14.40
2017,09,29,14,44,16.90
2017,09,29,14,45,15.30
2017,09,29,14,46,17.00
2017,09,29,14,47,17.80
2017,09,29,14,48,18.30
2017,09,29,14,49,14.60
2017,09,29,14,50,14.80
2017,09,29,14,51,16.20
2017,09,29,14,52,14.80
2017,09,29,14,53,20.30
2017,09,29,14,54,23.30
2017,09,29,14,55,20.10
2017,09,29,14,56,22.70
2017,09,29,14,57,22.90
2017,09,29,14,58,23.60
2017,09,29,14,59,14.60
2017,09,29,15,00,16.00
2017,09,29,15,01,26.20
2017,09,29,15,02,22.50
2017,09,29,15,03,20.00
2017,09,29,15,04,27.20
2017,09,29,15,05,19.80
2017,09,29,15,06,14.70
2017,09,29,15,07,20.30
2017,09,29,15,08,19.20
2017,09,29,15,09,22.50
2017,09,29,15,10,19.60
2017,09,29,15,11,19.00
2017,09,29,15,12,23.40
2017,09,29,15,13,21.60
2017,09,29,15,14,16.40
2017,09,29,15,15,20.80
2017,09,29,15,16,19.50
2017,09,29,15,17,22.50
2017,09,29,15,18,19.70
2017,09,29,15,19,16.20
2017,09,29,15,20,16.70
2017,09,29,15,21,16.10
2017,09,29,15,22,17.50
2017,09,29,15,23,14.90
2017,09,29,15,24,24.40
2017,09,29,15,25,17.90
2017,09,29,15,26,19.50
2017,09,29,15,27,14.60
2017,09,29,15,28,21.30
2017,09,29,15,29,23.10
2017,09,29,15,30,22.00
2017,09,29,15,31,19.70
2017,09,29,15,32,14.70
2017,09,29,15,33,21.50
2017,09,29,15,34,15.70
2017,09,29,15,35,13.40
2017,09,29,15,36,22.10
2017,09,29,15,37,18.60
2017,09,29,15,38,18.40
2017,09,29,15,39,23.30
2017,09,29,15,40,21.10
2017,09,29,15,41,17.70
2017,09,29,15,42,21.20
2017,09,29,15,43,18.10
2017,09,29,15,44,16.60
2017,09,29,15,45,12.00
2017,09,29,15,46,17.00
2017,09,29,15,47,12.30
2017,09,29,15,48,16.30
2017,09,29,15,49,24.90
2017,09,29,15,50,16.70
2017,09,29,15,51,13.00
2017,09,29,15,52,18.90
2017,09,29,15,53,9.60
2017,09,29,15,54,15.00
2017,09,29,15,55,16.60
2017,09,29,15,56,17.30
2017,09,29,15,57,16.30
2017,09,29,15,58,15.50
2017,09,29,15,59,16.70
2017,09,29,16,00,24.80
2017,09,29,16,01,19.20
2017,09,29,16,02,16.00
2017,09,29,16,03,15.60
2017,09,29,16,04,11.80
2017,09,29,16,05,18.20
2017,09,29,16,06,15.30
2017,09,29,16,07,11.70
2017,09,29,16,08,17.80
2017,09,29,16,09,18.10
2017,09,29,16,10,19.20
2017,09,29,16,11,16.50
2017,09,29,16,12,19.00
2017,09,29,16,13,18.90
2017,09,29,16,14,20.70
2017,09,29,16,15,16.50
2017,09,29,16,16,17.50
2017,09,29,16,17,15.90
2017,09,29,16,18,15.40
2017,09,29,16,19,19.80
2017,09,29,16,20,13.50
2017,09,29,16,21,18.70
2017,09,29,16,22,20.50
2017,09,29,16,23,16.20
2017,09,29,16,24,21.10
2017,09,29,16,25,18.50
2017,09,29,16,26,22.60
2017,09,29,16,27,23.00
2017,09,29,16,28,13.30
2017,09,29,16,29,13.70
2017,09,29,16,30,15.20
2017,09,29,16,31,17.10
2017,09,29,16,32,16.30
2017,09,29,16,33,11.80
2017,09,29,16,34,14.80
2017,09,29,16,35,13.70
2017,09,29,16,36,14.00
2017,09,29,16,37,21.90
2017,09,29,16,38,14.60
2017,09,29,16,39,19.70
2017,09,29,16,40,14.90
2017,09,29,16,41,18.20
2017,09,29,16,42,17.90
2017,09,29,16,43,21.90
2017,09,29,16,44,20.10
2017,09,29,16,45,21.20
2017,09,29,16,46,12.80
2017,09,29,16,47,16.20
2017,09,29,16,48,19.60
2017,09,29,16,49,10.30
2017,09,29,16,50,11.20
2017,09,29,16,51,15.50
2017,09,29,16,52,15.60
2017,09,29,16,53,17.40
2017,09,29,16,54,14.60
2017,09,29,16,55,15.60
2017,09,29,16,56,10.10
2017,09,29,16,57,8.30
2017,09,29,16,58,21.00
2017,09,29,16,59,13.30
2017,09,29,17,00,12.20
2017,09,29,17,01,5.70
2017,09,29,17,02,12.50
2017,09,29,17,03,7.80
2017,09,29,17,04,14.20
2017,09,29,17,05,12.50
2017,09,29,17,06,10.90
2017,09,29,17,07,10.20
2017,09,29,17,08,10.90
2017,09,29,17,09,14.10
2017,09,29,17,10,5.10
2017,09,29,17,11,11.90
2017,09,29,17,12,9.70
2017,09,29,17,13,2.30
2017,09,29,17,14,13.30
2017,09,29,17,15,6.40
2017,09,29,17,16,14.30
2017,09,29,17,17,13.60
2017,09,29,17,18,9.50
2017,09,29,17,19,8.10
2017,09,29,17,20,3.90
2017,09,29,17,21,11.60
2017,09,29,17,22,12.50
2017,09,29,17,23,5.60
2017,09,29,17,24,7.80
2017,09,29,17,25,11.30
2017,09,29,17,26,21.30
2017,09,29,17,27,17.20
2017,09,29,17,28,8.90
2017,09,29,17,29,13.60
2017,09,29,17,30,7.10
2017,09,29,17,31,7.80
2017,09,29,17,32,5.40
2017,09,29,17,33,7.30
2017,09,29,17,34,3.20
2017,09,29,17,35,2.00
2017,09,29,17,36,3.40
2017,09,29,17,37,5.80
2017,09,29,17,38,14.00
2017,09,29,17,39,7.20
2017,09,29,17,40,8.20
2017,09,29,17,41,7.40
2017,09,29,17,42,6.10
2017,09,29,17,43,2.40
2017,09,29,17,44,5.90
2017,09,29,17,45,7.90
2017,09,29,17,46,4.00
2017,09,29,17,47,3.10
2017,09,29,17,48,6.70
2017,09,29,17,49,5.90
2017,09,29,17,50,7.10
2017,09,29,17,51,9.70
2017,09,29,17,52,7.40
2017,09,29,17,53,3.90